Time,TemperatureF,DewpointF,PressureIn,WindDirection,WindDirectionDegrees,WindSpeedMPH,WindSpeedGustMPH,Humidity,HourlyPrecipIn,Conditions,Clouds,dailyrainin,SoftwareType,DateUTC
2013-03-03 00:00:00,19.5,7.5,30.19,West,275,0.0,0.0,59,0.00,,,0.00,Wunderground v.1.15,2013-03-03 06:00:00,
2013-03-03 00:30:00,18.0,7.9,30.19,West,275,0.0,0.0,64,0.00,,,0.00,Wunderground v.1.15,2013-03-03 06:30:00,
2013-03-03 01:00:00,16.9,7.5,30.18,West,275,0.0,0.0,66,0.00,,,0.00,Wunderground v.1.15,2013-03-03 07:00:00,
2013-03-03 01:30:00,15.7,6.7,30.18,West,275,0.0,0.0,67,0.00,,,0.00,Wunderground v.1.15,2013-03-03 07:30:00,
2013-03-03 02:00:00,14.3,6.0,30.18,West,275,0.0,0.0,69,0.00,,,0.00,Wunderground v.1.15,2013-03-03 08:00:00,
2013-03-03 02:30:00,12.9,6.2,30.17,West,275,1.0,1.0,74,0.00,,,0.00,Wunderground v.1.15,2013-03-03 08:30:00,
2013-03-03 03:00:00,12.1,6.3,30.17,West,275,0.0,0.0,77,0.00,,,0.00,Wunderground v.1.15,2013-03-03 09:00:00,
2013-03-03 03:30:00,11.1,5.9,30.16,West,275,1.0,2.0,79,0.00,,,0.00,Wunderground v.1.15,2013-03-03 09:30:00,
2013-03-03 04:00:00,9.9,5.0,30.17,West,275,0.0,0.0,80,0.00,,,0.00,Wunderground v.1.15,2013-03-03 10:00:00,
2013-03-03 04:30:00,8.8,4.2,30.17,West,275,1.0,2.0,81,0.00,,,0.00,Wunderground v.1.15,2013-03-03 10:30:00,
2013-03-03 05:00:00,7.9,3.3,30.17,West,275,1.0,1.0,81,0.00,,,0.00,Wunderground v.1.15,2013-03-03 11:00:00,
2013-03-03 05:30:00,7.0,1.9,30.17,West,275,2.0,2.0,79,0.00,,,0.00,Wunderground v.1.15,2013-03-03 11:30:00,
2013-03-03 06:00:00,6.7,1.6,30.17,West,275,1.0,2.0,79,0.00,,,0.00,Wunderground v.1.15,2013-03-03 12:00:00,
2013-03-03 06:30:00,5.4,0.0,30.18,West,276,2.0,2.0,78,0.00,,,0.00,Wunderground v.1.15,2013-03-03 12:30:00,
2013-03-03 07:00:00,5.8,0.1,30.18,West,281,1.0,2.0,77,0.00,,,0.00,Wunderground v.1.15,2013-03-03 13:00:00,
2013-03-03 07:30:00,7.2,0.7,30.18,West,281,0.0,0.0,74,0.00,,,0.00,Wunderground v.1.15,2013-03-03 13:30:00,
2013-03-03 08:00:00,9.3,1.5,30.18,NNW,333,2.0,3.0,70,0.00,,,0.00,Wunderground v.1.15,2013-03-03 14:00:00,
2013-03-03 08:30:00,12.6,3.1,30.17,ESE,105,3.0,4.0,65,0.00,,,0.00,Wunderground v.1.15,2013-03-03 14:30:00,
2013-03-03 09:00:00,15.4,5.0,30.16,ESE,103,4.0,4.0,63,0.00,,,0.00,Wunderground v.1.15,2013-03-03 15:00:00,
2013-03-03 09:30:00,18.1,5.8,30.16,East,93,5.0,7.0,58,0.00,,,0.00,Wunderground v.1.15,2013-03-03 15:30:00,
2013-03-03 10:00:00,20.5,5.6,30.16,ESE,115,4.0,4.0,52,0.00,,,0.00,Wunderground v.1.15,2013-03-03 16:00:00,
2013-03-03 10:30:00,22.7,5.9,30.16,East,101,4.0,4.0,48,0.00,,,0.00,Wunderground v.1.15,2013-03-03 16:30:00,
2013-03-03 11:00:00,23.9,4.6,30.15,East,90,5.0,5.0,43,0.00,,,0.00,Wunderground v.1.15,2013-03-03 17:00:00,
2013-03-03 11:30:00,24.8,4.9,30.14,East,93,8.0,8.0,42,0.00,,,0.00,Wunderground v.1.15,2013-03-03 17:30:00,
2013-03-03 12:00:00,25.8,4.8,30.14,East,96,5.0,5.0,40,0.00,,,0.00,Wunderground v.1.15,2013-03-03 18:00:00,
2013-03-03 12:30:00,26.4,4.2,30.12,ESE,102,8.0,8.0,38,0.00,,,0.00,Wunderground v.1.15,2013-03-03 18:30:00,
2013-03-03 13:00:00,28.4,0.9,30.11,SE,129,4.0,7.0,30,0.00,,,0.00,Wunderground v.1.15,2013-03-03 19:00:00,
2013-03-03 13:30:00,29.1,-0.8,30.09,East,97,7.0,10.0,27,0.00,,,0.00,Wunderground v.1.15,2013-03-03 19:30:00,
2013-03-03 14:00:00,29.7,0.5,30.08,SE,136,6.0,6.0,28,0.00,,,0.00,Wunderground v.1.15,2013-03-03 20:00:00,
2013-03-03 14:30:00,30.7,0.6,30.08,SE,145,5.0,5.0,27,0.00,,,0.00,Wunderground v.1.15,2013-03-03 20:30:00,
2013-03-03 15:00:00,31.3,0.3,30.07,SSW,192,6.0,6.0,26,0.00,,,0.00,Wunderground v.1.15,2013-03-03 21:00:00,
2013-03-03 15:30:00,32.1,1.0,30.06,SSE,149,5.0,5.0,26,0.00,,,0.00,Wunderground v.1.15,2013-03-03 21:30:00,
2013-03-03 16:00:00,32.5,0.5,30.06,ESE,119,5.0,7.0,25,0.00,,,0.00,Wunderground v.1.15,2013-03-03 22:00:00,
2013-03-03 16:30:00,32.4,-0.4,30.06,ESE,123,4.0,5.0,24,0.00,,,0.00,Wunderground v.1.15,2013-03-03 22:30:00,
2013-03-03 17:00:00,32.1,0.2,30.05,SE,146,3.0,4.0,25,0.00,,,0.00,Wunderground v.1.15,2013-03-03 23:00:00,
2013-03-03 17:30:00,31.0,0.9,30.05,SE,140,1.0,1.0,27,0.00,,,0.00,Wunderground v.1.15,2013-03-03 23:30:00,
2013-03-03 18:00:00,30.1,0.1,30.05,East,98,2.0,3.0,27,0.00,,,0.00,Wunderground v.1.15,2013-03-04 00:00:00,
2013-03-03 18:30:00,29.0,-0.1,30.06,ESE,104,3.0,3.0,28,0.00,,,0.00,Wunderground v.1.15,2013-03-04 00:30:00,
2013-03-03 19:00:00,27.9,-1.8,30.06,ESE,105,3.0,3.0,27,0.00,,,0.00,Wunderground v.1.15,2013-03-04 01:00:00,
2013-03-03 19:30:00,26.9,-1.9,30.06,ESE,106,2.0,2.0,28,0.00,,,0.00,Wunderground v.1.15,2013-03-04 01:30:00,
2013-03-03 20:00:00,26.3,-5.7,30.06,ESE,106,0.0,0.0,24,0.00,,,0.00,Wunderground v.1.15,2013-03-04 02:00:00,
2013-03-03 20:30:00,26.1,-5.8,30.07,ESE,107,3.0,3.0,24,0.00,,,0.00,Wunderground v.1.15,2013-03-04 02:30:00,
2013-03-03 21:00:00,24.7,-6.2,30.07,ESE,107,1.0,2.0,25,0.00,,,0.00,Wunderground v.1.15,2013-03-04 03:00:00,
2013-03-03 21:30:00,24.2,-5.0,30.06,ESE,108,4.0,4.0,27,0.00,,,0.00,Wunderground v.1.15,2013-03-04 03:30:00,
2013-03-03 22:00:00,21.9,-2.9,30.06,ESE,108,1.0,1.0,33,0.00,,,0.00,Wunderground v.1.15,2013-03-04 04:00:00,
2013-03-03 22:30:00,21.4,-3.3,30.06,ESE,107,3.0,3.0,33,0.00,,,0.00,Wunderground v.1.15,2013-03-04 04:30:00,
2013-03-03 23:00:00,20.3,-3.7,30.06,ESE,108,3.0,3.0,34,0.00,,,0.00,Wunderground v.1.15,2013-03-04 05:00:00,
2013-03-03 23:30:00,19.9,-3.4,30.05,ESE,107,3.0,3.0,35,0.00,,,0.00,Wunderground v.1.15,2013-03-04 05:30:00,